OPS 4682 DEB, 14047

Orbit data source: Space-Track

OPS 4682 DEB, 14047 is space debris in LEO originally from a launch on Sat, 03 Apr 1965 UTC launched from the Air Force Western Test Range (AFWTR). Debris objects in space refer to the collection of defunct objects orbiting the Earth. Examples of debris include non-operational satellites, rocket bodies, and fragments generated from explosions, collisions, or faulty payload assembly.

Loading next visibility...
Identifier
14047, 1965-027J
Orbit
LEO
Country
Flag of USUS
Related business
Manufacturer
Unknown
Mission
Spacecraft
Bus & Motor
Unknown
Mass
Unknown
Launch date (UTC)
1965-04-03 (61 years ago)
Launch vehicle
Unknown
Launch site
Air Force Western Test Range (AFWTR)
Object type
Payload
Rocket body
Debris
Shape & HBR
Unknown shape, 0.1 m
Radar Cross Section
Small (<0.1 m²)

Expand to show TLE details & history
Last TLE update: 9 hours ago

TLE from 9 hours ago
0 OPS 4682 DEB
1 14047U 65027J   26132.09496346 -.00000085  00000-0 -32167-3 0  9998
2 14047  90.2400   2.1998 0031236 201.5385 312.4049 12.96631300829330
Epoch: 2026-05-12T02:16Z
TLE epoch observation values (Epoch: 2026-05-12T02:16:44.842Z)
Latitude
26.35262°
Longitude
-81.74301°
Altitude
1,262.431 km
Speed
7.234 km/s
True Right ascension
12h 09m 16s
True Declination
26° 13' 30"
Sunlit
Object was in daylight at epoch
Visualization orbit readout
Latitude
Unknown
Longitude
Unknown
Altitude
Unknown
Speed
Unknown
Apparent Right ascension
Unknown
Apparent Declination
Unknown
Sunlit
N/A
Visualization observer readout
Local Sidereal Time
19:19:05
Azimuth
Unknown
Elevation
Unknown
Doppler factor
Unknown
Orbital elements
Apogee altitude
1,296.343 km
Perigee altitude
1,248.549 km
Semi-major axis
7,650.583 km
Eccentricity
0.00312
Inclination
90.24°
RAAN
2.1998°
Arg. of periapsis
201.5385°
True anomaly
312.1399°
Mean anomaly
312.4049°
Eccentric anomaly
312.27247°
Mean motion
3.24341 °/min
Orbital period
110.99 mins
BSTAR
-0.00032167
Loading maneuver chart data...
Computing Atmospheric mass density...
Loading historical data...
Loading historical data...
Loading historical data...
Loading historical data...
Loading historical data...
Loading historical data...
Loading historical data...

Documentation

Showing up to 5 results
|